Location: Votelez
(50.0000°N, 15.0000°E)
Time: 10:12:37
(UTC+01:00)

ISS - Pass Details

Date: 16 February 2026
Orbit: 416 x 426 km, 51.6° (Epoch: 9 March)

Event Time Altitude Azimuth Distance (km) Brightness Sun altitude
Exits shadow 06:24:03 - 245° (WSW) 1,773 -1.1 -7.8°
Reaches altitude 10° 06:24:44 10° 245° (WSW) 1,491 -1.4 -7.7°
Maximum altitude 06:28:05 75° 159° (SSE) 436 -3.6 -7.2°
Drops below altitude 10° 06:31:25 10° 75° (ENE) 1,494 0.2 -6.7°
Sets 06:33:31 0° 73° (ENE) 2,358 1.3 -6.3°
